Houston, TX

3:10 PM CST on February 10, 2016 (GMT -0600)
Hobby

Weather History for KHOU - April, 2013

Change the Weather History Date:

Friday, April 26, 2013

  Actual Average Record
Temperature  
Mean Temperature 74 °F 72 °F  
Max Temperature 81 °F 82 °F 91 °F (1988)
Min Temperature 66 °F 62 °F 46 °F (1978)
Degree Days  
Heating Degree Days 0 0  
Month to date heating degree days 67 35  
Since 1 July heating degree days 1173 1364  
Cooling Degree Days 9 7  
Month to date cooling degree days 85 140  
Year to date cooling degree days 190 249  
Growing Degree Days 24 (Base 50)    
Moisture  
Dew Point 65 °F    
Average Humidity 76    
Maximum Humidity 93    
Minimum Humidity 58    
Precipitation  
Precipitation T in 0.12 in 3.52 in (1990)
Month to date precipitation 2.62 2.79  
Year to date precipitation 8.04 12.78  
Sea Level Pressure  
Sea Level Pressure 30.16 in    
Wind  
Wind Speed 8 mph (SE)    
Max Wind Speed 22 mph    
Max Gust Speed 26 mph    
Visibility 9 miles    
Events Rain    
T = Trace of Precipitation, MM = Missing Value Source: NWS Daily Summary

Daily Weather History Graph

Daily Weather History Graph

Search for Another Location

Airport or City:

Trip Planner

Search our weather history database for the weather conditions in past years. The results will help you decide how hot, cold, wet, or windy it might be!

Date:

Astronomy

Apr. 26, 2013 Rise Set
Actual Time 6:43 AM CDT 7:55 PM CDT
Civil Twilight 6:18 AM CDT 8:20 PM CDT
Nautical Twilight 5:48 AM CDT 8:49 PM CDT
Astronomical Twilight 5:17 AM CDT 9:20 PM CDT
Moon 9:12 PM CDT (4/26) 7:15 AM CDT (4/26)
Length of Visible Light 14h 01m
Length of Day
13h 11m
Full, 99% of the Moon is Illuminated
Apr 26
Full
May 2
Last Quarter
May 9
New
May 17
First Quarter
May 24
Full

Hourly Weather History & Observations

Time (CDT) Temp. Heat Index Dew Point Humidity Pressure Visibility Wind Dir Wind Speed Gust Speed Precip Events Conditions
12:19 AM 66.2 °F - 60.8 °F 83% 30.21 in 10.0 mi ESE 8.1 mph - N/A   Overcast
12:53 AM 66.9 °F - 60.1 °F 79% 30.22 in 10.0 mi ESE 8.1 mph - N/A   Overcast
1:53 AM 66.2 °F - 62.6 °F 88% 30.19 in 10.0 mi ESE 8.1 mph - N/A   Overcast
2:31 AM 66.2 °F - 62.6 °F 88% 30.17 in 10.0 mi SE 4.6 mph - N/A   Overcast
2:53 AM 66.9 °F - 63.0 °F 87% 30.18 in 10.0 mi SE 4.6 mph - N/A   Overcast
3:53 AM 68.0 °F - 64.0 °F 87% 30.17 in 9.0 mi Variable 4.6 mph - N/A   Overcast
4:53 AM 68.0 °F - 64.0 °F 87% 30.16 in 9.0 mi SE 5.8 mph - N/A   Overcast
5:44 AM 68.0 °F - 64.4 °F 88% 30.14 in 10.0 mi SSE 6.9 mph - N/A   Overcast
5:53 AM 68.0 °F - 64.0 °F 87% 30.16 in 8.0 mi SE 5.8 mph - N/A   Overcast
6:27 AM 66.2 °F - 64.4 °F 94% 30.15 in 2.5 mi SE 5.8 mph - 0.00 in Rain Light Rain
6:37 AM 66.2 °F - 64.4 °F 94% 30.15 in 2.5 mi SE 5.8 mph - 0.00 in Rain Light Rain
6:53 AM 66.9 °F - 64.9 °F 93% 30.17 in 2.5 mi ESE 6.9 mph - 0.00 in Rain Light Rain
7:09 AM 66.2 °F - 64.4 °F 94% 30.16 in 3.0 mi ESE 6.9 mph - 0.00 in   Overcast
7:19 AM 66.2 °F - 64.4 °F 94% 30.16 in 3.0 mi ESE 4.6 mph - 0.00 in   Overcast
7:53 AM 68.0 °F - 66.0 °F 93% 30.18 in 5.0 mi SE 8.1 mph - 0.00 in   Overcast
8:53 AM 72.0 °F - 64.9 °F 78% 30.19 in 10.0 mi SE 11.5 mph 17.3 mph N/A   Scattered Clouds
9:53 AM 73.0 °F - 64.0 °F 73% 30.20 in 10.0 mi SSE 12.7 mph - N/A   Overcast
10:15 AM 73.4 °F - 64.4 °F 73% 30.19 in 10.0 mi SE 13.8 mph 19.6 mph N/A   Overcast
10:38 AM 75.2 °F - 66.2 °F 73% 30.19 in 10.0 mi SE 10.4 mph 20.7 mph N/A   Mostly Cloudy
10:53 AM 75.9 °F - 64.9 °F 69% 30.21 in 8.0 mi SE 13.8 mph 21.9 mph N/A   Mostly Cloudy
11:12 AM 77.0 °F - 64.4 °F 65% 30.19 in 10.0 mi SSE 11.5 mph - N/A   Scattered Clouds
11:53 AM 78.1 °F - 66.0 °F 66% 30.20 in 10.0 mi SE 12.7 mph 21.9 mph N/A   Scattered Clouds
12:53 PM 78.1 °F - 64.9 °F 64% 30.19 in 10.0 mi SSE 12.7 mph 20.7 mph N/A   Mostly Cloudy
1:53 PM 80.1 °F 82.1 °F 66.0 °F 62% 30.17 in 10.0 mi SSE 10.4 mph 20.7 mph N/A   Mostly Cloudy
2:53 PM 81.0 °F 83.3 °F 66.9 °F 62% 30.15 in 10.0 mi SSE 13.8 mph - N/A   Scattered Clouds
3:53 PM 80.1 °F 82.3 °F 66.9 °F 64% 30.13 in 10.0 mi South 17.3 mph 23.0 mph N/A   Scattered Clouds
4:53 PM 78.1 °F - 66.9 °F 68% 30.11 in 10.0 mi SSE 11.5 mph 21.9 mph N/A   Mostly Cloudy
5:53 PM 77.0 °F - 66.9 °F 71% 30.11 in 10.0 mi SSE 12.7 mph - N/A   Mostly Cloudy
6:53 PM 75.9 °F - 66.0 °F 71% 30.13 in 10.0 mi SSE 11.5 mph - N/A   Mostly Cloudy
7:38 PM 73.4 °F - 66.2 °F 78% 30.12 in 10.0 mi SSE 8.1 mph - N/A   Mostly Cloudy
7:53 PM 73.0 °F - 66.0 °F 79% 30.13 in 10.0 mi SE 9.2 mph - N/A   Mostly Cloudy
8:53 PM 72.0 °F - 66.0 °F 81% 30.13 in 10.0 mi SE 10.4 mph 18.4 mph N/A   Mostly Cloudy
9:53 PM 71.1 °F - 66.9 °F 87% 30.13 in 10.0 mi SE 8.1 mph - N/A   Mostly Cloudy
10:00 PM 71.6 °F - 66.2 °F 83% 30.12 in 10.0 mi SE 10.4 mph - N/A   Mostly Cloudy
10:53 PM 72.0 °F - 66.9 °F 84% 30.15 in 10.0 mi SSE 8.1 mph - N/A   Mostly Cloudy
11:53 PM 71.1 °F - 66.9 °F 87% 30.14 in 10.0 mi SSE 9.2 mph - N/A   Mostly Cloudy